www.pogodaiklimat.ru

Погода и климат >> Архив погоды >> Россия >> Ростовская область >> Ростов-на-Дону


АРХИВ ПОГОДЫ в Ростове-на-Дону

Время (UTC), дата Ветер
(напр.,м/с)
 
Видим.   Явления Облачность Т
(С)
Тd
(С)
f
(%)
Тe
(С)
Тes
(С)
Комфортность P
(гПа)
Po
(гПа)
Тmin
(С)
Tmax
(С)
R
(мм)
R24
(мм)
S
(см)
03 21.06 ЮЗ 2 8000 м дымка 4/0
[Ac trans Ci fib]
+20.2 +16.8 81 +24 +25 комфорт 1007.2 998.6 +17.2
06 21.06 З 3 10 км 4/0
[Ac trans Ci fib]
+26.3 +14.3 48 +29 +36 жарко 1006.8 998.3
09 21.06 З 5 10 км 5/4 1000 м
[Cb calv Ac trans]
+29.3 +14.5 40 +31 +37 жарко 1006.0 997.6
12 21.06 З 7-11
{12}
10 км 8/4 1000 м
[Cb calv Ac trans Ci fib]
+28.6 +15.3 44 +31 +33 жарко 1005.3 996.9
15 21.06 З 7-10
{11}
10 км 5/1 1000 м
[Cb calv Ac trans Ci fib]
+28.2 +14.2 42 +30 +31 жарко 1005.2 996.8 +30.2
18 21.06 З 5
{11}
8000 м 4/1 1000 м
[Cb calv Ac trans Ci fib]
+24.5 +17.0 63 +28 +28 душно 1006.1 997.6
21 21.06 З 3 8000 м 6/0
[Ac trans Ci fib]
+20.8 +16.5 76 +25 +25 комфорт 1006.1 997.5
00 22.06 З 3 8000 м 4/3 300 м
[St Ac trans]
+21.8 +19.6 87 +27 +27 душно 1005.7 997.2
03 22.06 С 4 10 км 5/0
[Ac trans]
+20.0 +14.9 72 +22 +23 комфорт 1006.7 998.1 +20.0
06 22.06 С 4 10 км 9/0
[Ac trans Ci]
+22.6 +11.3 49 +25 +29 комфорт 1008.0 999.4 +19.6
09 22.06 З 4 10 км 9/1 1500 м
[Cu med, cong Ac trans Ci fib]
+25.4 +6.4 30 +25 +31 комфорт 1008.9 1000.4
12 22.06 СЗ 5 10 км 8/1 1000 м
[Cu med, cong Ac trans Ci]
+25.6 +6.5 29 +25 +29 комфорт 1009.3 1000.8
15 22.06 СЗ 5
{10}
10 км 5/0
[Ac trans Ci fib]
+25.5 +2.3 22 +24 +25 комфорт 1010.1 1001.6 +26.1
18 22.06 З 1
{10}
10 км 5/0
[Ac trans Ci fib]
+20.9 +6.1 38 +23 +23 комфорт 1011.8 1003.1
21 22.06 ЮЗ 1 7000 м дым ясно +16.0 +8.1 59 +17 +17 прохладно 1012.6 1003.8
00 23.06 З 1 7000 м дымка ясно +16.1 +12.6 80 +17 +17 по сезону 1012.4 1003.6
03 23.06 ЮЗ 4 8000 м дымка 9/3 1000 м
[Sc Ac trans Ci fib]
+16.5 +14.0 85 +16 +16 прохладно 1012.5 1003.7 +14.7
06 23.06 ЮЗ 5 10 км 9/3 1000 м
[Cu med, cong Ac trans Ci]
+22.4 +17.5 74 +27 +29 душно 1012.6 1004.0
09 23.06 ЮЗ 8-12
{10}
10 км 8/4 1500 м
[Cb calv Ac trans Ci fib]
+26.0 +12.8 44 +28 +29 жарко 1011.9 1003.4
12 23.06 ЮЗ 7-11
{15}
10 км {ливн. осадки} 8/4 1500 м
[Cb calv Ac trans Ci fib]
+25.8 +12.1 42 +27 +29 жарко 1010.7 1002.2
15 23.06 ЮЗ 5
{15}
10 км {гроза, ливн. осадки} 4/1 1000 м
[Cu med, cong Ac trans Ci fib]
+24.2 +15.7 59 +27 +28 жарко 1010.0 1001.5 +26.5 5
18 23.06 ЮЗ 5
{15}
8000 м {гроза, ливн. осадки} 5/0
[Ac trans Ci]
+20.4 +11.8 58 +22 +22 комфорт 1010.4 1001.7
21 23.06 ЮЗ 3 8000 м 8/0
[Ac trans Ci fib]
+18.4 +14.0 76 +19 +19 по сезону 1008.7 1000.0
00 24.06 ЮЗ 4 8000 м 8/4 900 м
[Cb calv Ac trans]
+18.4 +15.4 83 +19 +19 тепло 1007.0 998.3
03 24.06 ЮЗ 7-10
{11}
10 км в посл. час ливневой дождь 9/5 630 м
[Cb calv Ac trans]
+18.9 +14.3 75 +19 +19 по сезону 1005.0 996.4 +18.2
06 24.06 З 6-10
{14}
1400 м ливневой дождь {гроза} 10/8 540 м
[Cb calv Ac und]
+19.9 +18.0 89 +22 +23 комфорт 1005.0 996.4
09 24.06 З 7-10
{16}
10 км гроза без осадков {ливн. осадки} 9/5 1200 м
[Cb calv Ac trans]
+24.0 +17.4 67 +28 +29 душно 1005.0 996.5
12 24.06 З 6-10
{16}
10 км в посл. час гроза {ливн. осадки} 9/4 1000 м
[Cb calv Ac trans Ci fib]
+24.1 +17.3 66 +28 +30 душно 1005.6 997.1
15 24.06 СЗ 4
{11}
10 км гроза, ливневой дождь 10/5 400 м
[Cb cap Ac und]
+21.4 +17.6 79 +26 +26 душно 1006.8 998.2 +24.8 8
18 24.06 В 2
{11}
5000 м слабый ливневой дождь {гроза} 10/5 1440 м
[Cb calv Ac und]
+18.8 +17.0 89 +21 +21 комфорт 1009.3 1000.6
21 24.06 штиль 0 4200 м дымка {ливн. осадки} 9/3 2000 м
[Cb calv Ac trans]
+17.9 +16.2 90 +18 +18 по сезону 1009.9 1001.2
00 25.06 С 1 2700 м в посл. час туман {ливн. осадки} 5/3 100 м
[St Ac trans]
+16.4 +15.2 93 +17 +17 по сезону 1010.6 1001.8
03 25.06 СВ 3 10 км 5/0
[Ac trans]
+16.1 +14.1 88 +16 +16 прохладно 1012.3 1003.5 +14.4 5
06 25.06 ЮВ 3 10 км 4/1 600 м
[Cu hum Ac trans]
+20.6 +14.1 66 +24 +30 комфорт 1013.6 1004.9
09 25.06 Ю 3 10 км 8/5 1000 м
[Cb calv Ac trans]
+22.8 +13.6 56 +26 +31 жарко 1013.8 1005.2
12 25.06 З 4 10 км 9/5 1500 м
[Cb calv Ac trans Ci fib]
+23.4 +11.9 48 +26 +29 жарко 1014.4 1005.8
15 25.06 ЮЗ 5 10 км 6/1 1000 м
[Cu hum Ac trans Ci fib]
+23.9 +15.0 57 +27 +28 жарко 1014.0 1005.4 +25.2
18 25.06 Ю 2 8000 м 5/0
[Ac trans Ci fib]
+21.4 +16.2 72 +25 +25 комфорт 1014.8 1006.1
21 25.06 ЮЗ 2 8000 м 5/3 1000 м
[Cb calv Ac trans]
+19.9 +16.3 80 +23 +23 комфорт 1015.4 1006.7
00 26.06 ЮЗ 2 5000 м ясно +18.0 +16.3 90 +19 +19 тепло 1015.4 1006.6
03 26.06 З 2 3600 м дымка 5/5 150 м
[St Ac trans]
+19.3 +17.7 90 +22 +22 комфорт 1015.6 1006.9 +17.6
06 26.06 В 2 6000 м дымка 4/1 600 м
[Cu hum Ac trans]
+24.8 +19.3 71 +30 +37 душно 1016.0 1007.4
09 26.06 ЮВ 3 10 км 5/5 1000 м
[Cu med, cong]
+27.4 +15.7 49 +30 +38 жарко 1015.4 1006.9
12 26.06 Ю 3 10 км 4/4 1000 м
[Cu med, cong]
+28.5 +13.9 41 +30 +37 жарко 1014.8 1006.3
15 26.06 ЮВ 2 10 км 3/0
[Ac trans]
+28.8 +14.2 41 +31 +33 жарко 1013.5 1005.1 +29.4
18 26.06 СЗ 1 8000 м дым 3/0
[Ac trans]
+24.4 +15.4 57 +27 +27 жарко 1013.4 1004.8
21 26.06 штиль 0 8000 м дым ясно +21.0 +14.2 65 +24 +24 комфорт 1013.4 1004.7
00 27.06 СВ 1 8000 м ясно +21.0 +13.5 62 +25 +25 комфорт 1013.3 1004.6
03 27.06 В 1 10 км 1/0
[Ci fib]
+22.6 +17.2 72 +27 +29 душно 1013.2 1004.6 +18.7
06 27.06 ЮВ 2 10 км ясно +27.4 +16.5 51 +31 +41 душно 1012.7 1004.2
09 27.06 ЮВ 4 10 км 3/3 1000 м
[Cu med, cong]
+29.7 +15.3 42 +32 +41 душно 1012.2 1003.8
12 27.06 В 3 10 км 4/1 1000 м
[Cu med, cong Ac trans]
+30.8 +12.4 32 +31 +39 жарко 1011.5 1003.1
15 27.06 В 3 10 км 4/0
[Ac trans Ci fib]
+30.3 +11.7 32 +31 +33 жарко 1010.5 1002.1 +30.9
18 27.06 В 2 8000 м 5/0
[Ac trans Ci fib]
+26.0 +14.1 48 +28 +28 жарко 1011.2 1002.7
21 27.06 СВ 1 8000 м 3/0
[Ci fib]
+21.8 +13.3 58 +24 +24 комфорт 1011.0 1002.4
00 28.06 З 1 8000 м 3/0
[Ci fib]
+18.7 +14.3 76 +21 +21 комфорт 1010.9 1002.2

 

Местоположение метеостанции Ростов-на-Дону (Ростовская область, Россия): широта 47.27 долгота 39.82 высота над уровнем моря 75 м.

В архиве по умолчанию представлена погода в Ростове-на-Дону за последнюю неделю. Архивные данные за месяц целиком и за предыдущие месяцы, начиная с января 2011 года, Вы можете получить, выбрав интересующий диапазон дат из раскрывающегося списка и нажав кнопку "Ввод!".

Внимание! Время в таблицах - всемирное. Для получения местного времени необходимо прибавить поправку, которая в Ростове-на-Дону равна 3 ч.

Смотрите также архив погоды в соседних городах и на ближайших метеорологических станциях:

Погода в Шахтах (Ростовская область, Россия) (59 км)
Погода в Зерноград (Ростовская область, Россия) (60 км)
Погода в Таганроге (Ростовская область, Россия) (70 км)
Погода в Матвеевом Кургане (Ростовская область, Россия) (78 км)
Погода в Семикаракорске (Ростовская область, Россия) (81 км)
Погода в Маргаритово (Ростовская область, Россия) (81 км)
Погода в Кущевской (Краснодарский край, Россия) (84 км)
Погода в Константиновске (Ростовская область, Россия) (102 км)
Погода в Староминская (Краснодарский край, Россия) (102 км)
Погода в Каменск-Шахтинском (Ростовская область, Россия) (120 км)

Пояснения к столбцам:

Ветер - указаны скорость ветра в м/с - средняя за 10 мин, порывы в срок и между сроками (в фигурных скобках) и направление, откуда дует ветер: С - северный, СВ - северо-восточный, В - восточный, ЮВ - юго-восточный, Ю - южный, ЮЗ - юго-западный, З - западный, СЗ - северо-западный.
Видимость - горизонтальная дальность видимости в метрах или километрах. При видимости от 1 до 10 км при отсутствии осадков обычно наблюдается дымка, при ухудшении видимости до 1 км и менее - туман. В сухую погоду видимость может ухудшаться дымом, пылью или мглою.
Явления - указаны атмосферные явления, наблюдавшиеся в срок или в последний час перед сроком; фигурными скобками обозначены явления, наблюдавшиеся между сроками (за 1-3 часа до срока); квадратными скобками обозначены град или гололедные отложения с указанием их диаметра в мм.
Облачность - указаны через наклонную черту общая и нижняя облачность в баллах и высота нижней границы облаков в метрах; квадратными скобками обозначены формы облаков: Ci - перистые, Cs - перисто-слоистые, Cc - перисто-кучевые, Ac - высококучевые, As - высокослоистые, Sc - слоисто-кучевые, Ns - слоисто-дождевые, Cu - кучевые, Cb - кучево-дождевые. Подробнее классификацию облаков см. в Атласе облаков (PDF).
T - Температура воздуха - температура, измеренная на высоте 2 м над землей.
Td - Температура точки росы - температура, при понижении до которой содержащийся в воздухе водяной пар достигнет насыщения.
f - Относительная влажность воздуха - влажноcть воздуха, измеренная на высоте 2 м над землей.
Te - Эффективная температура - температура, которую ощущает одетый по сезону человек в тени. Характеристика душности погоды. При расчете учитывается влияние влажности воздуха и скорости ветра на теплоощущения человека.
Tes - Эффективная температура на солнце - температура, которую ощущает человек, с поправкой на солнечный нагрев. Характеристика знойности погоды. Зависит от высоты солнца над горизонтом, облачности и скорости ветра. Ночью, в пасмурную погоду, а также при ветре 12 м/с и более поправка равна нулю.
P - Атмосферное давление - приведенное к уровню моря атмосферное давление.
Po - Атмосферное давление - измеренное на уровне метеостанции атмосферное давление.
Tmin - Минимальная температура - минимум температуры воздуха на высоте 2 м над землей.
Tmax - Максимальная температура - максимум температуры воздуха на высоте 2 м над землей.
R - Количество осадков - Количество выпавших осадков за период времени, мм. При наведении курсора мыши на число - период времени, за который выпало указанное количество осадков.
R24 - Количество осадков - Количество выпавших осадков за 24 часа, мм.
S - Снежный покров - Высота снежного покрова, см. При наведении курсора мыши на число - состояние снежного покрова и степень покрытия местности в баллах.